Regional Weather Roundup
Issued by NWS Bismarck, ND

Home | Current Version | Previous Version | Text Only | Print | Product List | Glossary On
Versions: 1 2 3 4 5 6 7 8 9 10 11 12 13 14 15 16 17 18 19 20 21 22 23 24 25 26 27 28 29 30 31 32 33 34 35 36 37 38 39 40 41 42 43 44 45 46 47 48 49 50
000
ASUS43 KBIS 290310
RWRBIS

NWR BROADCAST TEXT
NATIONAL WEATHER SERVICE BISMARCK ND
1000 PM CDT THU APR 28 2016

NOTE: "FAIR" INDICATES FEW OR NO CLOUDS BELOW 12,000 FEET WITH NO
SIGNIFICANT WEATHER AND/OR OBSTRUCTIONS TO VISIBILITY.


CITY           SKY/WX    TMP DP  RH WIND       PRES   REMARKS
WILLISTON      CLOUDY    50  20  30 E3        30.16R
MINOT          CLOUDY    48  20  32 NE6       30.17R
MINOT AFB      NOT AVBL
BISMARCK       CLOUDY    48  32  53 NE6       30.15R
DICKINSON      CLOUDY    42  28  57 E7        30.12R
GARRISON         N/A     48  21  34 E9        30.15R
HETTINGER ARPT CLOUDY    40  36  86 W7        30.14R
JAMESTOWN      CLOUDY    48  31  51 NE9       30.14R
BEACH          CLOUDY    41  39  93 SW3       30.17S
CARRINGTON     FAIR      46  27  46 E5        30.18R
HAZEN          CLOUDY    46  25  42 E5        30.18R
LINTON         CLOUDY    46  36  66 NE3       30.16R
MANDAN         CLOUDY    46  27  46 E6        30.15R
OAKES            N/A    N/A N/A N/A MISG        N/A
RUGBY          FAIR      45  21  39 NE10      30.18R
STANLEY        FAIR      45  21  39 CALM      30.18R
TIOGA          MOCLDY    41  23  48 CALM      30.22R
WATFORD CITY   CLOUDY    43  27  52 E3        30.16R
$$

CITY           SKY/WX    TMP DP  RH WIND       PRES   REMARKS
GRAND FORKS    MOCLDY    41  31  67 NE5       30.15R
GRAND FORKS AF NOT AVBL
DEVILS LAKE    CLOUDY    46  28  49 CALM      30.17R
FARGO          PTCLDY    52  27  38 NE8       30.11R
CANDO          FAIR      45  18  33 NE10      30.20R
CAVALIER       FAIR      46  25  42 NE7       30.18R
GRAFTON        FAIR      45  28  53 NE7       30.18R
GWINNER        CLOUDY    48  39  71 W5        30.13R
LANGDON        FAIR      45  19  36 NE12      30.18R
ROLLA          MOCLDY    37  19  48 NE8       30.21R
WALHALLA       FAIR      46  21  36 N10       30.19R
$$

CITY           SKY/WX    TMP DP  RH WIND       PRES   REMARKS
ABERDEEN       CLOUDY    45  37  73 S8        30.14R
MOBRIDGE       CLOUDY    48  40  73 CALM      30.10R
BUFFALO          N/A     38  34  85 SW5       30.07R
RAPID CITY     CLOUDY    37  34  89 N3        30.13R
GLASGOW        CLOUDY    44  34  67 SE3       30.13R
SIDNEY         CLOUDY    45  34  65 CALM      30.15S
WOLF POINT     CLOUDY    50  30  46 CALM      30.14R
GLENDIVE       CLOUDY    45  34  65 S8        30.17R
MILES CITY     CLOUDY    42  34  73 SE8       30.13S
BAKER          CLOUDY    40  33  76 CALM      30.14S
$$

CITY           SKY/WX    TMP DP  RH WIND       PRES   REMARKS
BILLINGS       CLOUDY    38  34  85 NE6       30.10R
GREAT FALLS    CLOUDY    39  32  76 NE8       30.06S
REGINA         MOCLDY    50  19  29 E14       30.18R
ESTEVAN        CLOUDY    43  16  33 E8        30.19R
$$





USA.gov is the U.S. government's official web portal to all federal, state and local government web resources and services.